LEMUR-2-YNDRD (44404 NORAD) Tracking and Keplerian Element Data

This shows tracking and keplerian element data for the satellite.

Feedback or suggestion? Click here.




ElementValue
Catalog44404
NameLEMUR-2-YNDRD
Epoch Orbit232
Epoch Day201.85428219
Epoch Year2019
RAAN163.5057
Inclination97.4907
Eccentricity0.0022057
Argument of Perigee193.7767
Mean Anonmoly166.2864
Mean Motion15.11815919
Decay Rate4.46E-06
L11 44404U 19038U 19201.85428219 .00000446 00000-0 29754-4 0 9994
L22 44404 97.4907 163.5057 0022057 193.7767 166.2864 15.11815919 2328

Live tracking and technical data element details for LEMUR-2-YNDRD (NORAD 44404). LEMUR-2-YNDRD can be tracked NOW for your location showing map with azimuth and elevation plus other details from your city location.

Track the satellite on the map from your city or location and see movement details for azimuth, elevation, latitude, longitude, range, height, and movement on the map or in text.







IsCatalogInMostPopularTable: catalog: 44404, numindb: 2
Update: records affected: 1



GetName: 44404 LEMUR-2-YNDRD

Hit Count: updated at: Sun, 21 Jul 2019 21:26:21 GMT